Wind_Speed
2 4 5 3 2 3 2 0 1 2 1 1 2 4 4 4 5 2 5 4 1 5 9 10 10 12 11 9 10 10 9 10 11 11 9 9 10 11 12 13 12 13 11 11 13 14 15 16 16 15 13 12 12 13 13 11 10 9 9 8 7 5 2 2 2 2 5 7 7 7 8 9 8 7 6 4 4 3 2 3 3 3 4 5 6 7
3 5 3 2 4 4 4 4 4 4 3 3 4 4 5 6 4 2 3 4 3 5 7 7 9 12 12 11 10 10 10 12 13 12 11 12 12 12 13 14 13 11 8 8 11 13 14 16 16 15 14 14 13 14 14 12 11 10 9 8 7 6 4 3 2 2 3 5 7 7 7 8 7 6 6 5 4 4 3 3 3 3 3 4 5 6
6 5 4 5 4 6 6 5 6 5 4 4 4 4 4 3 2 3 4 4 3 4 5 6 8 11 12 11 12 12 12 12 12 11 10 11 12 11 12 12 11 9 8 9 10 12 14 15 17 16 15 16 14 13 13 13 11 10 9 8 7 6 5 3 3 3 2 4 8 8 7 8 7 5 6 5 3 4 3 3 4 4 5 5 5 5
4 2 6 6 6 8 7 6 6 5 5 5 4 5 3 2 2 3 5 5 3 4 6 5 7 10 11 12 13 14 13 11 9 8 8 9 11 12 10 8 8 8 8 9 9 10 12 14 17 17 16 16 15 13 12 13 12 11 10 9 8 6 4 2 2 3 3 5 8 8 7 8 8 5 5 4 3 3 4 4 4 5 6 6 7 6
1 6 6 6 7 8 8 8 8 5 5 5 4 6 4 2 4 3 4 4 4 4 5 7 9 8 8 9 9 9 8 9 9 9 10 11 11 11 9 9 8 7 6 7 9 9 11 14 16 18 17 16 15 15 14 14 13 12 11 10 9 7 5 3 1 3 4 4 5 4 3 5 6 5 5 4 4 5 5 5 6 6 7 7 8 8
2 5 4 8 8 8 8 7 8 7 5 5 6 7 5 3 4 2 3 4 5 6 5 5 7 3 5 6 6 5 6 8 9 11 12 12 12 10 9 10 9 7 6 6 8 9 11 13 15 17 17 17 16 15 14 14 13 12 11 11 10 8 6 4 2 2 3 3 3 4 4 4 5 5 5 5 5 5 5 6 7 8 7 7 8 9
3 4 4 6 7 9 8 8 7 7 7 4 4 5 5 5 5 4 5 6 4 2 4 3 6 2 3 6 7 6 6 8 9 10 12 11 10 10 9 9 8 7 7 6 7 8 10 12 14 16 17 17 16 15 14 13 14 13 12 13 12 9 7 7 5 1 3 3 2 4 4 4 4 4 3 3 4 4 5 6 7 8 8 8 8 9
5 7 5 5 7 8 8 7 7 8 8 2 5 4 6 6 6 6 6 6 4 3 3 7 6 6 5 3 5 6 7 8 9 10 10 10 9 10 9 8 8 7 7 7 7 8 9 11 14 16 16 16 15 14 14 14 15 14 14 14 13 11 9 8 7 3 3 3 1 2 3 3 3 2 2 2 3 4 5 6 7 8 8 8 8 9
5 7 7 7 7 7 7 2 6 10 7 1 5 3 5 5 5 5 6 5 2 4 5 7 6 6 6 3 6 7 9 9 9 10 10 10 10 9 9 9 8 7 6 7 8 8 9 11 12 14 14 14 13 13 13 14 14 15 14 14 14 12 10 10 9 5 3 3 1 1 2 2 2 1 1 1 2 3 4 5 7 7 8 8 8 9
3 3 4 6 6 6 3 3 3 8 4 4 6 4 4 4 5 5 6 5 2 5 8 5 7 6 5 3 6 7 8 9 8 8 8 9 9 8 9 9 9 8 7 7 7 7 8 9 10 10 11 11 11 12 12 12 13 15 15 15 15 14 11 11 10 7 5 3 2 1 1 2 1 1 1 1 1 2 3 5 6 7 7 7 8 8
4 3 1 6 6 3 3 5 2 3 2 6 7 5 5 6 5 5 5 4 4 7 7 5 8 6 5 3 4 5 4 5 6 7 8 8 8 8 8 9 10 9 8 8 8 7 8 8 8 9 10 10 10 11 12 12 13 15 15 15 16 14 12 12 11 8 6 4 3 3 2 2 1 1 1 1 1 2 3 4 6 6 7 7 8 9
6 6 4 5 6 3 4 4 2 2 5 7 6 6 6 6 5 5 5 5 6 7 3 5 7 7 6 3 1 4 4 4 5 7 8 8 9 9 9 9 10 10 9 9 8 8 8 7 8 9 10 10 11 12 13 13 14 15 16 16 16 15 13 12 11 9 7 6 5 4 2 2 1 1 2 2 3 3 3 4 5 6 7 7 8 8
6 8 7 6 7 8 8 6 4 5 7 7 7 7 7 6 5 6 6 6 7 5 4 6 6 6 7 7 4 4 6 7 7 6 6 7 8 8 8 9 9 8 8 9 9 8 7 7 8 10 11 12 13 13 15 15 16 16 16 17 17 16 14 12 11 10 8 7 6 4 3 3 2 2 3 3 3 4 4 4 5 6 7 7 8 8
4 5 9 8 6 10 11 7 5 6 7 9 8 8 7 7 7 8 7 6 7 3 5 6 5 5 7 8 8 9 8 9 8 7 7 7 8 8 8 8 7 8 9 9 9 9 8 8 9 10 10 11 13 14 16 16 16 15 15 16 17 15 14 13 12 10 9 8 7 5 4 4 3 3 3 4 4 5 5 5 6 7 7 8 9 9
6 3 8 8 4 9 13 11 9 6 6 10 10 8 8 7 7 8 6 8 8 2 6 6 4 5 4 2 4 7 7 8 9 8 8 7 9 9 8 8 8 8 9 9 9 9 9 9 9 10 10 11 12 14 14 14 15 15 15 16 18 16 15 15 13 11 10 9 7 6 5 4 4 4 4 4 5 5 6 6 7 8 9 10 10 10
7 5 5 5 2 6 11 11 10 8 6 8 8 8 10 9 8 7 3 3 5 2 4 5 4 6 4 1 3 6 6 9 10 9 10 10 10 9 8 9 9 9 10 10 9 9 9 10 10 10 10 11 11 11 12 12 13 14 14 16 18 18 16 16 14 12 11 9 8 6 5 5 4 4 5 5 6 6 7 8 9 9 10 11 11 11
6 3 5 4 3 6 8 7 6 8 6 3 6 9 8 7 9 8 3 1 1 7 7 6 6 7 6 6 9 11 10 11 12 12 12 11 10 9 8 9 10 11 11 10 10 10 10 11 11 11 11 10 9 9 10 11 12 13 13 14 17 18 16 16 15 12 11 10 8 7 6 6 5 6 6 6 7 8 9 9 10 11 11 12 12 12
4 6 3 6 7 5 4 5 7 9 7 4 6 7 4 4 7 8 7 4 5 10 9 8 10 9 8 7 9 14 15 13 14 14 13 12 11 9 9 10 12 12 11 11 11 11 11 12 12 12 10 9 7 7 8 9 9 10 11 13 17 18 17 16 15 13 11 10 9 8 7 7 6 6 6 7 7 8 9 10 10 11 12 12 13 13
2 7 6 5 5 1 3 5 8 8 9 9 7 4 4 7 8 7 7 8 10 10 9 10 12 11 10 8 7 13 15 14 15 15 14 13 12 11 10 11 13 12 11 11 11 11 11 12 14 13 11 8 7 6 7 8 8 9 10 12 15 17 17 16 14 13 11 10 9 8 7 7 6 6 7 7 8 8 9 10 11 12 13 13 14 15
2 7 5 2 2 1 2 6 8 6 8 9 7 6 8 8 8 9 8 8 10 11 10 12 12 10 10 11 11 13 13 13 14 14 14 14 13 12 11 11 12 12 11 10 11 12 11 13 16 14 9 6 6 6 6 7 8 9 10 12 14 16 16 16 14 13 12 11 9 8 7 7 6 7 7 8 8 9 10 11 12 12 14 15 16 16
3 6 7 5 4 5 6 6 9 8 6 6 7 8 9 7 8 9 9 9 10 11 11 11 12 10 8 9 12 14 12 12 14 14 13 13 13 13 12 12 11 11 11 11 11 11 11 14 15 10 6 5 5 5 6 7 7 9 10 12 15 16 16 16 15 13 12 11 9 8 7 6 6 7 8 9 9 10 11 11 12 13 15 16 17 18
4 5 7 9 8 9 11 10 10 9 7 7 7 8 10 9 9 10 11 11 11 12 11 11 13 12 7 6 10 12 11 11 13 14 13 13 13 14 13 13 13 12 12 12 12 12 11 12 10 6 5 4 4 5 6 7 8 9 11 12 15 16 17 16 15 13 12 10 9 8 7 6 7 7 8 9 10 11 12 12 13 15 17 18 19 19
3 5 8 10 11 13 15 15 14 13 13 12 10 10 11 11 10 10 11 10 10 11 12 12 14 12 8 6 9 10 10 10 12 13 13 12 12 13 13 14 14 13 13 13 12 11 9 7 6 5 4 4 4 5 6 7 8 9 11 13 14 16 17 16 14 13 11 10 8 7 6 6 7 8 9 10 11 12 13 13 14 16 18 19 20 20
2 5 7 9 11 13 15 15 15 17 16 13 12 12 11 11 10 10 10 9 9 10 11 11 12 11 8 7 8 10 10 11 12 13 14 12 10 12 14 14 14 14 13 12 10 7 6 5 4 5 5 4 4 4 6 7 8 9 11 12 13 15 16 15 14 12 10 9 8 7 6 7 7 8 9 11 12 12 13 15 15 17 19 20 21 22
2 4 6 8 9 10 10 10 10 11 9 7 9 9 9 11 12 11 11 10 10 13 16 14 12 10 7 5 8 11 12 12 13 14 15 13 10 12 13 13 13 13 13 11 9 7 6 6 6 6 4 4 4 4 6 7 8 9 10 11 12 14 15 15 13 11 10 8 7 7 7 7 7 8 9 11 12 13 14 15 16 18 20 21 22 23
5 6 6 8 10 10 9 7 6 5 5 6 9 10 12 13 12 10 8 8 9 14 17 15 12 12 12 9 9 11 13 14 14 15 14 13 12 12 12 13 12 11 10 11 9 8 7 7 6 5 3 3 3 4 5 6 7 8 9 11 12 13 14 14 12 11 9 8 7 7 7 7 8 9 10 11 12 14 15 16 17 19 21 22 24 24
5 7 8 10 12 12 13 13 12 10 10 11 13 14 15 14 13 9 7 8 10 11 13 14 13 15 17 15 13 12 13 14 14 15 15 14 13 13 12 12 10 8 8 9 8 7 7 7 6 4 3 2 3 4 5 6 7 8 9 11 12 12 13 13 11 10 8 7 7 7 7 7 8 9 10 11 12 14 16 18 19 21 22 23 25 26
6 9 11 13 15 16 18 20 18 16 15 15 16 17 17 16 16 13 11 12 12 11 12 14 13 13 16 18 18 17 14 13 13 14 15 14 14 14 12 11 10 9 8 8 8 8 8 7 5 4 4 5 5 5 5 5 6 7 8 10 11 12 12 12 10 9 8 7 7 7 7 7 8 9 10 11 13 15 17 19 20 21 22 23 25 26
6 10 11 13 16 19 20 20 20 17 16 16 17 19 18 19 18 17 17 18 15 12 13 15 15 13 15 20 22 21 19 17 16 14 14 14 14 14 14 13 12 11 10 10 10 9 8 7 6 5 6 6 6 6 6 6 6 7 8 9 11 12 12 11 9 8 7 7 7 6 7 7 8 9 10 11 14 16 18 20 21 22 23 24 25 26
5 8 9 11 14 18 20 20 19 18 17 17 19 20 20 20 20 19 20 20 19 17 16 18 19 16 16 21 24 21 19 18 17 16 14 13 14 15 15 14 13 13 12 11 10 8 8 7 6 6 7 7 6 7 7 6 7 8 9 10 11 11 11 10 8 7 7 6 6 6 7 7 8 9 10 12 15 17 19 20 22 23 24 25 25 26
6 7 8 9 10 15 19 18 18 18 17 18 20 21 21 21 20 19 18 17 18 18 17 18 18 16 17 21 22 20 19 18 19 19 14 14 17 17 15 14 13 13 12 10 9 8 8 7 7 6 6 6 6 6 6 6 7 9 10 11 11 11 10 9 7 7 6 5 5 6 7 8 9 9 11 13 16 18 20 21 23 24 24 25 26 26
7 8 9 9 10 13 15 15 16 16 15 17 20 21 21 19 16 16 15 14 14 15 15 16 15 14 16 18 18 19 20 21 22 20 17 18 20 18 15 14 13 12 11 10 9 9 8 8 7 6 5 5 5 6 7 8 9 10 11 12 11 10 9 8 7 6 5 5 5 6 7 8 9 10 12 15 17 18 19 21 22 24 24 25 25 26
8 8 8 9 9 12 14 14 12 11 11 14 15 15 16 16 16 16 15 15 16 14 13 13 13 14 17 16 16 18 19 21 21 19 18 18 17 14 14 14 13 11 11 11 10 10 8 7 6 5 4 3 3 5 7 9 10 11 12 12 11 9 8 7 6 5 5 5 6 6 7 8 9 11 13 15 16 18 20 21 23 24 24 25 26 27
10 10 9 8 9 12 15 13 10 10 12 12 9 8 10 12 14 15 15 16 17 16 14 15 16 19 19 17 17 16 16 17 16 13 12 11 11 12 13 13 12 11 12 11 10 9 7 6 5 5 3 2 3 5 7 9 11 12 12 11 10 9 7 6 5 5 5 5 6 7 7 8 9 11 13 14 16 18 20 22 23 24 25 25 26 27
11 11 10 9 8 10 12 11 11 11 11 10 10 10 11 13 14 16 18 19 20 19 19 20 21 22 22 20 17 17 18 16 10 6 7 8 8 11 11 11 12 12 12 10 9 8 6 5 4 4 3 2 4 6 8 10 12 12 12 11 10 8 6 5 5 5 5 6 7 7 8 9 10 11 13 15 17 19 21 22 24 25 26 26 26 27
12 10 9 9 9 9 10 10 10 10 10 13 14 12 11 12 13 14 16 18 19 19 19 20 21 23 22 21 19 18 18 14 7 5 7 7 6 8 10 11 12 12 11 9 9 7 6 5 3 2 2 2 4 7 10 12 13 13 12 10 9 7 6 5 5 5 5 6 7 8 8 9 10 11 14 16 18 20 21 23 25 26 26 27 27 27
13 11 9 9 9 9 10 11 10 10 13 14 9 4 4 5 7 7 9 14 15 13 13 15 18 21 18 17 19 16 10 7 7 8 7 6 6 8 10 11 11 11 10 9 8 7 5 4 2 1 1 3 5 8 12 14 14 12 12 10 8 7 6 5 5 5 6 6 7 8 9 9 10 12 15 17 19 21 22 24 26 28 28 28 28 28
13 11 9 9 8 8 9 10 9 10 11 7 1 3 3 3 5 4 7 12 10 5 6 8 11 14 13 15 17 11 3 3 8 10 8 9 10 10 10 11 10 10 10 9 8 6 5 3 1 1 1 3 6 9 12 14 14 13 11 10 8 6 6 5 5 5 6 7 8 8 9 10 11 13 15 17 19 21 23 24 27 29 28 28 28 28
11 10 9 10 9 8 9 9 8 8 9 5 1 0 3 3 2 3 7 9 4 5 9 11 12 12 11 12 14 8 3 5 9 8 7 12 12 11 11 11 10 10 9 8 6 5 4 3 1 1 2 4 8 11 13 15 14 13 11 9 8 6 5 5 5 5 6 7 8 9 10 10 12 13 16 18 21 22 22 23 26 29 29 27 27 29
10 8 8 10 10 9 10 9 7 7 9 6 2 4 6 4 1 4 9 6 6 11 12 11 13 14 12 12 11 8 7 8 9 7 9 13 13 11 11 10 9 9 8 7 6 4 3 2 2 2 3 5 8 12 14 14 14 12 10 8 7 6 5 4 4 4 6 7 8 9 10 11 12 14 17 19 22 23 23 24 27 30 28 27 27 28
9 7 7 9 10 10 10 9 7 8 7 3 3 7 7 4 3 6 8 6 10 14 14 11 12 13 13 12 9 7 9 10 6 6 11 14 12 11 10 8 8 7 5 6 5 2 2 3 3 3 3 4 8 13 14 14 13 12 10 8 7 6 4 3 3 4 5 7 8 9 10 11 12 16 18 19 22 23 23 24 27 28 27 27 28 28
7 6 7 8 8 8 9 9 9 8 2 2 5 8 4 4 6 5 7 11 13 14 15 14 13 11 11 12 10 8 9 6 7 13 14 13 11 10 9 7 7 6 4 4 4 2 3 3 3 3 3 4 10 14 14 13 13 11 9 8 6 5 3 2 3 4 5 7 8 9 10 11 12 15 17 19 22 24 23 24 25 26 26 27 28 28
4 4 6 7 7 7 8 8 9 6 0 2 8 7 1 4 7 8 10 12 13 14 14 14 13 9 8 10 10 9 9 4 7 13 13 12 10 9 8 6 5 3 2 2 2 3 2 3 3 4 3 5 10 14 14 13 12 11 9 7 5 4 3 2 3 4 5 7 7 8 10 11 12 14 16 19 22 23 22 22 23 24 25 26 27 27
5 5 6 5 3 4 6 7 6 5 4 5 8 7 5 7 9 10 11 11 11 12 11 11 12 10 7 9 8 8 10 6 4 9 10 10 10 8 7 5 3 2 1 1 2 2 2 3 4 4 4 6 11 14 14 13 12 10 8 6 5 5 3 2 2 4 5 7 8 8 10 11 12 13 15 19 21 21 21 22 22 22 24 25 25 25
5 5 6 6 3 4 8 9 10 11 11 10 9 8 9 11 10 11 12 11 9 10 9 10 13 11 9 9 7 7 9 7 4 7 7 8 8 6 5 4 3 2 1 2 2 1 2 4 4 5 6 7 10 13 13 12 11 10 8 6 6 5 3 2 2 3 5 7 8 9 10 11 12 13 15 17 19 19 20 22 21 20 22 24 23 24
7 6 5 5 6 8 10 12 13 13 13 11 10 10 10 11 10 11 11 10 9 9 9 11 12 12 11 9 6 6 9 6 4 6 5 6 6 5 4 3 3 2 1 1 1 1 2 3 5 7 8 8 11 13 12 11 10 9 8 7 6 5 3 1 1 3 5 7 8 9 10 11 12 14 15 16 17 18 19 20 19 19 21 22 22 23
9 9 8 7 7 8 8 9 10 11 12 12 12 12 11 10 8 7 7 8 9 10 10 11 12 11 10 7 5 5 7 4 6 6 5 5 5 4 4 3 3 3 1 2 2 1 3 4 6 8 9 10 11 13 12 11 10 9 9 8 7 6 4 2 2 3 5 7 8 8 10 11 12 13 15 15 15 16 19 19 17 16 19 21 21 22
5 4 5 8 9 10 11 13 13 14 14 14 12 9 8 7 7 7 7 8 10 10 9 10 10 9 8 6 4 2 4 3 2 5 5 4 4 4 4 3 3 3 3 3 3 1 2 3 5 8 10 11 12 13 12 12 11 10 10 9 8 6 5 3 2 3 5 6 7 8 10 10 11 12 13 13 13 15 18 19 15 13 15 18 20 21
6 4 6 9 10 11 13 14 14 13 12 11 8 6 5 6 7 9 9 10 10 9 9 10 9 7 7 6 1 3 1 2 3 4 3 3 4 4 4 4 3 2 2 3 2 1 1 2 4 7 9 10 12 13 13 12 12 11 10 10 8 7 5 3 1 2 4 6 7 8 9 10 11 12 12 12 12 14 16 17 16 14 14 16 19 23
10 10 10 9 9 10 10 10 9 9 9 8 8 9 8 7 8 10 10 10 9 7 9 11 9 5 4 4 2 1 2 2 3 3 2 3 4 4 4 3 2 2 2 3 2 1 2 2 4 7 8 10 12 13 13 13 12 11 11 10 9 7 5 3 1 2 3 5 6 8 9 9 10 11 12 11 11 13 15 16 17 16 15 16 19 22
10 11 10 9 10 11 11 12 10 9 10 11 11 11 10 8 8 9 10 9 7 4 7 11 8 4 3 2 3 4 2 4 3 1 2 3 3 3 3 3 3 3 4 4 3 2 3 4 6 9 10 11 12 13 13 14 13 12 12 11 9 7 5 3 2 3 4 4 5 6 7 8 9 11 11 10 10 12 15 16 18 17 16 17 18 20
Wind_Direction
260 218 206 221 190 156 139 73 356 45 84 182 214 244 244 247 249 187 124 118 184 246 230 227 235 240 237 221 207 194 193 223 238 240 238 237 246 250 252 252 244 238 234 218 204 193 190 193 193 194 197 194 199 210 211 202 193 186 180 169 161 151 112 96 86 55 46 35 25 23 18 13 8 3 1 5 12 5 338 323 315 290 279 271 261 253
244 235 194 90 64 96 117 118 124 136 160 203 232 241 233 240 245 132 132 141 157 250 232 217 239 245 242 240 229 211 206 224 236 237 238 243 249 254 255 254 248 241 226 198 189 188 191 193 191 193 196 195 197 206 210 207 201 194 188 179 166 154 140 122 114 108 72 42 32 29 21 14 10 6 359 350 349 357 346 333 334 308 293 286 271 261
218 224 116 98 95 105 121 147 163 168 183 217 236 248 244 228 201 138 160 177 181 245 237 210 241 251 244 243 238 229 226 232 237 239 245 251 252 252 252 250 248 240 210 190 187 188 192 193 192 192 197 200 200 200 203 205 204 198 195 188 172 162 154 125 98 107 98 48 39 35 33 28 22 14 0 351 346 353 351 333 331 322 309 302 287 276
219 146 99 122 150 146 148 166 179 183 201 228 248 252 245 151 235 220 160 174 196 246 274 271 266 263 251 246 241 237 240 239 234 233 240 246 248 249 252 253 248 238 215 199 192 187 189 191 191 192 195 198 195 193 196 200 202 201 199 188 174 169 162 136 84 72 58 36 34 31 36 38 33 30 13 6 11 353 344 321 308 306 304 305 296 286
183 78 101 151 172 178 176 176 192 214 220 217 234 260 268 169 244 288 118 159 204 217 257 275 270 256 236 238 235 224 229 232 222 222 227 231 235 242 249 251 247 239 229 209 193 186 188 190 190 191 193 193 193 195 197 199 200 200 198 187 178 177 171 162 70 53 58 49 41 33 42 44 36 36 26 14 7 346 332 316 305 303 299 296 293 292
109 80 141 166 182 199 193 195 208 229 250 219 208 238 259 217 218 225 158 196 231 205 193 258 275 234 175 208 214 185 197 210 207 215 225 226 225 227 234 240 238 230 224 214 199 191 189 189 188 189 190 193 196 198 197 195 197 199 196 190 188 183 179 187 200 70 75 79 64 48 44 41 32 31 26 13 353 337 326 315 309 306 301 291 286 288
110 124 176 177 196 204 210 229 211 214 259 253 167 191 218 222 211 203 206 223 260 237 150 220 280 273 192 213 201 187 198 199 198 211 223 224 218 220 227 230 226 213 203 201 200 195 190 188 185 186 190 195 198 195 191 191 195 197 193 193 195 188 185 199 207 166 95 87 61 52 54 52 43 33 23 6 338 327 320 313 310 306 303 297 289 284
127 147 176 196 208 209 223 235 188 196 251 270 107 158 193 205 211 209 226 236 284 330 192 208 249 275 267 228 173 187 207 205 204 211 215 214 210 214 220 217 210 199 190 189 192 193 191 188 187 189 192 195 194 188 186 193 198 197 193 194 196 190 190 202 211 202 130 109 72 55 72 70 54 40 19 355 326 321 314 310 309 306 301 296 291 286
148 175 184 193 209 220 232 238 158 194 239 78 101 158 187 203 222 219 239 247 270 304 254 197 199 255 259 174 153 187 210 216 211 207 207 204 202 206 208 209 204 193 188 191 190 189 190 190 191 192 190 188 185 184 188 195 198 197 194 195 195 192 192 202 211 210 174 130 100 67 80 73 52 29 4 338 320 316 313 311 307 303 298 292 289 287
149 189 195 204 225 234 224 56 136 206 230 107 126 156 167 194 222 220 244 261 237 262 269 202 182 248 272 182 173 188 212 229 219 205 203 199 200 206 207 209 207 198 195 198 193 188 185 184 183 180 178 177 179 187 192 194 198 198 195 195 195 193 191 201 209 208 192 156 130 158 126 90 71 350 333 320 318 310 309 310 305 302 298 294 292 288
140 113 215 225 242 261 97 77 79 216 154 132 158 186 187 196 211 224 242 260 253 252 256 196 184 239 273 221 188 188 212 238 220 199 192 195 204 211 212 213 214 209 202 201 197 190 182 174 171 173 180 183 185 192 194 196 198 198 197 196 195 194 191 197 205 201 191 174 165 181 164 118 124 291 297 295 296 294 299 299 298 300 297 295 293 289
176 182 203 206 217 209 142 132 126 154 163 172 199 212 213 211 209 227 224 217 247 250 216 163 182 222 246 246 147 161 188 224 218 201 194 206 219 219 217 220 221 217 209 203 199 192 185 181 182 188 194 195 195 197 199 201 200 199 200 198 196 194 189 190 197 194 185 180 177 181 170 146 158 231 256 270 279 279 282 280 284 294 293 292 290 287
215 215 202 186 193 200 201 192 164 167 191 208 222 218 228 233 223 238 230 215 239 236 137 150 181 213 242 259 257 202 198 211 214 217 223 233 242 237 225 224 225 220 213 207 203 197 193 194 198 202 202 200 201 205 205 204 203 202 202 198 196 194 187 185 188 186 181 180 179 176 166 157 176 222 244 256 266 267 271 272 275 282 285 285 285 284
245 199 182 185 190 200 213 218 193 189 197 207 216 216 229 244 248 248 238 235 244 213 125 149 179 227 251 252 240 222 213 213 213 223 239 249 254 254 241 231 228 223 218 214 209 204 200 203 205 209 210 205 207 210 209 207 205 202 200 197 196 194 186 182 181 180 178 178 178 175 167 162 183 216 236 248 257 263 268 270 272 275 277 277 277 277
267 238 183 185 165 180 203 227 241 241 212 211 223 231 235 250 260 259 257 260 260 185 132 152 179 223 229 183 194 205 209 215 217 222 233 244 250 254 251 238 231 225 219 215 211 207 208 210 210 215 218 214 213 211 207 205 202 200 200 196 195 192 185 179 178 178 176 175 174 172 170 172 189 214 231 243 250 258 265 268 270 272 271 272 273 273
263 267 166 158 118 172 207 232 244 257 246 219 225 236 238 246 258 264 283 300 303 303 177 178 209 232 225 148 171 186 197 209 216 219 225 239 244 243 243 233 225 222 216 210 209 210 212 213 212 214 216 215 212 203 197 197 197 198 199 195 195 193 185 179 178 177 174 174 175 175 176 181 195 216 230 239 244 251 262 267 269 270 269 270 272 272
259 259 128 151 213 209 233 255 234 241 258 215 216 238 243 251 261 263 256 110 304 276 247 209 223 238 243 246 218 208 211 210 209 212 219 234 240 235 233 226 219 217 212 205 206 209 209 209 208 209 212 213 205 191 188 191 192 195 196 194 195 193 185 179 177 176 175 174 176 178 180 187 202 219 231 238 244 251 260 265 267 269 270 271 271 271
278 276 241 246 250 213 227 271 245 238 252 244 234 247 251 249 257 259 258 247 235 254 252 217 216 227 241 248 215 206 213 212 209 212 217 225 228 227 225 219 215 214 209 204 205 208 209 208 206 206 210 208 196 183 182 183 184 190 195 196 196 192 186 180 177 177 176 175 177 181 186 195 208 223 233 239 246 252 258 263 266 270 272 273 274 273
303 282 269 259 268 183 157 240 247 227 226 248 272 281 254 251 251 238 243 255 251 255 258 230 222 228 238 240 210 204 211 212 211 210 212 213 214 219 218 214 214 212 208 207 208 211 212 210 209 210 209 198 181 175 174 175 179 188 195 196 196 195 189 182 178 178 179 180 181 183 190 200 213 226 234 238 243 248 255 261 266 270 274 276 277 275
299 279 275 206 189 270 215 232 251 234 212 230 258 259 249 257 265 257 248 253 256 259 261 251 243 241 239 236 232 226 220 215 209 202 204 208 206 210 211 211 212 211 211 213 216 218 215 214 214 211 204 188 169 167 170 174 182 188 192 192 192 192 187 182 179 180 182 185 186 187 192 203 218 230 237 241 245 248 254 261 266 272 277 279 279 277
273 266 271 251 222 252 257 243 260 267 246 232 237 243 246 247 257 265 260 253 256 261 262 263 259 253 249 242 240 241 235 224 212 198 200 206 204 206 208 210 212 212 214 218 221 222 217 216 216 203 181 176 166 163 171 177 184 186 189 191 191 189 186 183 183 184 186 187 190 193 198 212 227 234 242 247 249 253 257 262 268 276 280 279 278 277
289 269 275 272 259 259 266 267 273 281 284 274 263 260 259 255 255 261 258 250 252 257 259 265 265 263 265 250 236 240 240 230 215 204 203 205 205 207 208 210 213 214 217 219 221 223 221 218 211 183 163 183 181 179 180 178 183 188 189 192 192 192 191 189 187 188 189 189 192 197 206 222 235 242 247 250 253 257 260 264 272 280 280 277 276 276
326 279 275 274 270 269 273 275 275 274 276 276 270 266 267 265 261 260 262 264 264 264 265 266 266 267 269 246 228 234 239 233 224 214 209 210 210 210 209 209 213 216 220 220 218 220 221 213 194 177 191 210 205 194 184 182 189 192 192 191 191 193 193 191 190 190 189 190 194 200 213 229 242 248 252 255 258 261 263 269 276 281 279 275 275 274
343 274 272 278 276 277 275 270 261 256 259 262 257 257 264 270 272 270 273 282 280 272 269 265 263 267 270 244 231 240 240 229 224 219 218 219 216 213 212 210 213 216 218 219 217 215 214 207 206 218 229 236 224 199 187 191 195 190 189 191 191 192 192 190 190 191 192 195 199 206 222 237 247 253 257 260 263 266 270 275 279 280 278 275 274 272
315 274 280 286 285 284 277 264 249 240 243 265 274 273 272 280 290 292 283 279 271 264 263 262 261 268 271 241 233 240 228 214 212 216 221 224 216 212 212 212 214 214 214 216 216 214 216 219 226 233 243 261 251 208 189 189 187 185 187 189 189 189 189 189 190 193 197 200 205 217 231 242 253 260 263 265 269 272 277 279 281 280 278 275 273 272
284 274 275 276 276 280 279 278 282 278 276 290 296 291 281 283 291 294 287 279 274 272 268 264 266 274 275 262 247 238 221 212 211 209 212 218 215 212 212 211 211 210 211 216 216 215 218 220 224 230 243 267 253 205 185 180 179 183 184 184 186 185 184 186 187 190 196 201 212 227 237 247 260 267 269 271 275 278 281 283 283 281 279 277 275 274
271 264 259 259 264 272 278 284 294 297 287 283 287 285 280 280 280 275 267 265 270 276 273 270 280 289 286 278 265 249 230 220 216 209 208 213 213 211 210 208 205 204 210 215 215 214 215 213 217 219 214 219 208 186 177 175 176 179 178 180 183 180 179 181 183 187 194 204 219 234 244 255 266 270 273 276 279 282 285 285 284 282 281 279 277 275
266 262 259 260 262 266 272 279 285 285 279 278 281 280 278 276 273 264 254 255 262 269 269 269 274 282 288 286 277 271 263 248 233 219 212 213 213 212 211 205 201 204 210 212 213 214 215 213 208 193 178 177 180 173 170 174 175 175 176 176 175 174 174 175 179 187 196 207 223 238 251 262 268 270 274 279 283 286 287 286 284 283 282 280 278 276
271 267 264 266 267 267 270 275 279 279 277 275 274 274 273 271 267 261 257 256 257 258 262 267 265 262 272 275 270 271 272 268 259 246 232 229 225 218 215 211 210 214 216 216 217 213 212 208 191 171 168 170 171 171 172 176 175 173 173 170 167 169 170 172 179 189 198 211 226 242 257 266 270 272 276 282 288 290 289 287 286 285 283 281 279 277
271 270 273 275 272 271 271 273 275 275 273 272 270 269 268 266 262 260 259 258 257 257 259 260 260 258 257 260 263 264 265 267 268 264 255 245 235 225 219 217 218 222 222 219 214 203 193 185 172 166 169 171 175 178 177 177 177 174 171 166 164 165 169 173 181 191 203 218 233 249 263 270 272 274 280 289 293 292 291 290 289 287 285 283 281 279
265 273 281 279 273 272 270 269 270 270 271 272 271 269 266 265 264 261 259 257 257 259 255 251 256 262 258 257 261 263 259 257 257 257 258 252 240 231 224 220 220 223 220 211 196 181 171 166 166 171 172 170 173 175 177 180 177 172 168 166 165 166 169 175 182 193 209 228 246 259 267 272 275 280 288 294 295 294 294 293 292 290 288 287 284 281
263 271 276 271 268 269 267 266 268 272 277 273 267 264 262 260 260 258 256 254 252 254 255 252 254 259 258 259 262 259 251 247 246 245 248 246 238 228 221 219 218 215 206 192 176 168 168 166 165 168 165 160 165 175 180 179 174 170 168 166 166 166 169 175 185 199 217 240 255 263 267 272 280 287 294 297 297 297 297 297 296 294 291 289 287 284
257 264 270 267 267 269 270 272 277 284 280 266 259 257 254 252 253 254 256 256 251 249 253 257 258 259 261 265 268 259 246 241 240 237 236 236 231 224 220 218 211 199 184 173 168 167 166 163 160 154 147 146 165 180 180 176 173 170 167 165 164 164 169 177 189 207 227 248 259 264 269 274 283 292 296 298 299 300 302 302 300 298 295 291 289 286
253 256 260 261 262 267 271 276 279 273 261 259 267 268 261 261 262 261 262 261 256 252 250 254 261 265 267 268 267 262 254 247 240 233 234 234 223 217 215 206 192 177 167 164 164 162 157 156 157 150 147 159 174 175 173 172 171 166 162 163 164 167 176 184 196 217 234 251 262 265 270 277 287 295 298 298 300 303 305 306 305 302 299 295 291 287
249 247 252 256 256 264 271 272 263 254 252 264 276 274 275 278 274 271 272 269 266 264 261 258 260 263 266 267 266 262 259 255 246 242 259 258 232 212 198 185 173 165 161 161 161 158 153 155 164 167 174 181 172 173 174 171 167 163 161 164 166 171 181 192 209 229 240 255 266 267 272 281 289 297 299 298 301 305 307 309 310 307 303 297 292 288
244 243 246 251 251 258 263 258 252 257 276 283 281 281 283 276 269 271 273 270 269 271 270 266 264 263 263 265 266 262 255 254 261 267 261 255 235 205 184 174 167 160 158 159 155 152 149 154 173 193 203 200 187 184 181 173 167 164 164 167 171 175 184 201 225 244 252 260 268 271 275 283 291 296 298 300 302 305 308 311 312 310 306 298 292 288
235 239 246 248 246 249 253 256 260 272 282 284 286 308 326 295 285 290 283 278 281 284 282 277 275 274 274 276 276 268 249 241 262 259 233 202 202 200 180 165 158 153 150 147 143 140 140 149 175 218 236 232 212 193 180 171 166 165 166 171 176 180 192 212 237 257 262 266 272 274 277 285 292 295 298 302 304 306 310 312 313 312 308 300 294 291
229 232 243 250 247 244 251 262 267 268 273 277 173 97 43 341 314 305 285 285 292 317 330 318 303 299 304 302 290 277 219 217 256 251 213 179 182 183 162 149 147 146 144 141 141 144 146 150 171 260 263 240 215 193 177 168 166 168 170 175 181 189 204 224 246 262 268 272 275 274 276 284 291 295 299 302 305 308 311 311 311 312 310 302 297 294
234 231 240 250 255 255 255 263 263 259 270 283 224 88 351 346 328 289 277 280 311 8 350 340 331 323 324 316 297 274 210 229 251 241 192 171 174 168 153 146 145 143 142 142 143 145 143 142 170 261 255 233 209 189 173 168 170 173 174 177 184 197 215 234 254 269 274 277 276 275 279 285 290 296 300 302 306 310 311 309 311 313 312 306 301 297
237 235 238 246 253 253 252 259 261 260 272 285 315 337 334 340 347 270 267 280 356 351 336 337 335 328 329 325 303 264 230 242 250 226 177 170 171 162 151 149 146 144 147 145 138 136 157 174 207 233 236 225 202 181 170 170 175 177 176 178 187 204 221 235 255 274 276 276 277 278 283 287 292 298 302 304 307 310 311 311 313 315 314 310 305 300
250 247 244 248 254 254 253 257 259 263 271 294 8 356 340 317 258 246 264 314 344 331 325 332 331 327 331 330 316 279 261 260 239 172 163 169 166 150 141 140 138 137 140 133 125 141 210 205 213 230 235 216 191 175 169 174 179 178 177 180 192 209 220 228 254 271 274 277 281 285 291 295 298 303 305 306 309 311 312 312 314 317 316 313 308 303
269 260 249 249 257 260 259 258 264 271 276 49 354 348 344 280 264 272 306 325 327 321 323 325 321 327 336 329 321 312 295 266 161 144 154 162 153 139 136 134 130 129 130 128 129 181 226 223 221 221 223 203 184 174 171 178 181 177 176 184 195 203 203 215 253 267 274 284 288 293 299 302 303 306 308 309 312 315 315 314 316 317 316 313 310 306
276 271 264 258 258 265 263 256 262 274 106 22 323 327 293 255 292 317 321 317 318 322 324 320 317 329 341 325 315 316 310 283 144 135 140 140 128 123 126 124 121 128 133 145 163 177 199 239 232 208 199 190 181 175 175 182 182 176 175 183 183 176 178 208 260 273 279 290 296 301 304 306 308 310 311 313 315 317 317 316 316 317 317 316 313 312
256 246 266 272 255 263 265 255 267 301 321 308 305 301 278 281 298 307 305 305 313 320 319 314 313 321 329 317 307 308 304 286 153 126 121 119 115 118 121 119 126 141 139 179 196 175 197 243 233 201 188 184 179 176 177 182 181 173 170 170 159 158 172 203 258 277 287 295 301 306 309 311 313 315 315 316 318 319 320 319 318 318 320 320 319 318
232 232 274 288 268 267 277 277 287 301 302 295 290 287 287 290 291 293 294 295 301 310 312 309 308 310 312 307 301 298 291 271 163 121 113 115 114 117 121 125 142 155 170 207 208 208 230 237 223 200 186 178 177 176 178 182 180 170 162 155 148 150 162 179 261 286 300 308 309 311 315 315 317 320 320 319 321 323 324 323 323 324 326 326 326 324
229 231 259 279 277 280 278 271 272 278 281 281 282 285 290 293 293 290 287 288 296 304 307 308 307 306 306 304 298 291 280 250 150 108 107 117 115 115 120 126 138 146 179 210 168 220 234 220 210 201 184 171 175 176 176 181 179 165 153 145 138 136 138 138 302 305 314 319 318 317 318 319 323 325 323 322 324 327 327 326 327 332 334 333 331 330
248 245 241 244 264 278 272 263 268 276 280 283 286 289 294 302 308 302 292 296 303 302 304 311 307 302 302 292 268 276 281 238 153 126 122 121 115 119 122 122 129 127 95 60 71 142 211 198 194 190 177 167 171 173 173 178 176 162 148 141 133 128 124 101 356 332 330 328 326 324 323 326 327 325 325 327 328 330 332 330 328 335 341 340 337 337
274 271 248 244 250 258 264 271 279 282 284 285 285 285 296 314 319 315 313 312 304 296 304 314 308 301 302 284 243 250 311 301 137 123 121 119 115 117 112 107 109 94 74 70 70 115 201 190 183 180 175 169 168 170 171 173 170 161 148 137 131 128 119 94 14 344 341 335 332 332 330 328 327 326 327 330 330 333 337 337 333 333 340 345 347 346
268 262 257 261 263 262 265 273 280 281 282 283 281 283 309 323 314 313 319 318 310 308 314 315 311 311 311 301 267 124 99 341 35 66 91 111 109 102 93 91 91 73 64 63 50 46 144 171 178 175 170 166 164 166 167 165 166 164 152 138 131 130 122 109 62 354 349 344 342 341 334 329 329 330 330 329 331 334 337 338 337 333 331 340 352 358
257 254 256 260 263 264 268 278 288 291 289 291 295 299 309 317 313 311 313 312 316 329 327 317 321 347 359 353 18 113 177 134 73 61 83 98 94 89 76 63 54 33 15 7 1 18 79 120 158 164 158 154 157 159 158 159 164 164 153 141 135 134 135 138 121 29 8 2 358 348 337 332 334 335 333 330 331 334 335 336 339 338 333 335 347 360
250 256 261 262 266 273 281 288 295 297 291 293 300 302 302 310 313 309 309 312 323 351 328 311 321 31 66 15 312 283 234 127 113 116 112 104 99 85 58 17 358 350 338 331 338 11 60 98 128 140 139 139 145 149 152 157 163 160 149 142 141 143 150 149 96 46 28 18 7 347 334 335 337 336 335 334 334 336 339 340 342 344 343 344 348 355
Height
788 791 791 789 787 787 790 789 789 790 791 794 796 797 796 797 793 789 796 800 798 801 796 790 793 790 786 785 785 788 791 793 793 792 793 793 792 790 788 787 788 789 790 792 796 799 802 805 808 811 813 814 816 817 818 819 821 821 822 823 823 824 824 825 826 826 826 826 825 825 825 825 825 824 824 824 824 824 824 823 823 823 823 823 822 823
792 793 789 787 789 790 793 794 793 794 796 797 798 797 797 797 794 792 799 800 801 804 796 791 796 792 787 785 783 785 790 791 789 789 790 789 788 786 785 785 784 785 787 790 794 797 800 803 805 808 810 812 814 815 816 818 819 820 821 822 822 823 824 824 825 825 825 825 825 825 825 825 824 824 824 824 824 823 823 823 823 823 823 823 822 822
794 790 788 791 794 795 797 796 795 797 799 798 796 797 796 793 794 798 802 801 801 804 796 793 798 793 785 783 782 783 785 785 783 784 786 785 785 784 783 783 783 784 786 789 792 795 798 800 802 805 807 810 811 813 815 816 817 818 819 821 821 822 823 823 824 824 824 824 824 824 824 824 824 824 823 823 823 823 823 823 823 823 823 823 822 822
793 789 790 795 795 796 800 799 797 799 799 797 795 796 795 794 797 799 801 803 801 803 798 795 798 792 784 782 780 779 779 780 781 783 785 784 784 783 781 782 783 784 786 788 790 792 795 797 800 802 804 807 809 811 813 814 816 817 818 819 819 820 821 822 822 822 823 822 822 822 822 822 823 823 823 822 823 823 823 823 823 823 823 822 822 821
790 794 796 798 797 795 799 800 799 800 797 796 797 796 794 795 798 797 799 803 802 803 802 800 800 789 781 782 778 776 779 780 781 782 783 782 781 781 781 781 782 783 784 785 787 789 792 794 797 799 802 804 806 809 811 812 813 815 816 817 818 819 820 820 821 821 821 821 821 821 821 822 821 822 823 823 823 823 822 822 822 822 822 822 821 820
791 801 799 798 799 795 797 799 796 797 795 794 796 794 793 795 797 798 801 803 803 804 801 802 803 788 777 781 779 776 780 779 778 778 779 778 777 779 780 780 780 782 783 784 785 787 789 791 794 797 799 802 804 806 808 810 811 813 815 815 816 817 818 819 820 820 820 820 821 821 821 821 821 821 822 823 823 823 822 822 822 822 821 821 821 820
794 803 800 799 800 796 797 796 791 794 796 795 793 791 793 795 797 800 801 802 801 799 798 802 804 794 780 776 774 774 778 776 775 776 775 774 774 776 776 776 777 779 781 783 784 784 786 789 792 794 797 799 801 804 806 808 809 811 813 813 814 816 817 818 818 818 819 819 820 820 820 820 820 821 821 822 823 822 822 822 821 821 821 820 820 819
795 802 803 800 799 797 797 792 789 792 796 796 793 791 793 795 798 799 799 799 795 794 798 798 800 801 789 774 770 773 777 777 774 774 773 771 772 773 773 773 774 776 779 781 783 783 785 787 789 792 794 797 799 802 803 805 807 809 811 811 812 814 815 816 817 817 817 818 819 819 819 819 820 820 821 821 822 822 821 821 821 820 820 819 819 818
793 798 799 798 798 795 789 786 786 790 794 795 795 793 792 795 797 796 797 796 794 800 801 793 795 803 789 773 772 775 777 777 773 771 771 770 770 771 771 771 771 774 776 778 780 782 783 785 788 790 793 795 798 799 801 803 805 807 808 809 810 812 813 814 815 816 816 816 817 818 818 818 819 819 819 820 820 821 820 820 820 819 819 818 818 817
791 792 791 793 794 789 784 785 787 789 793 794 795 794 794 797 796 796 797 792 797 808 803 789 793 799 785 769 771 776 777 774 769 767 768 767 768 769 769 770 770 772 775 776 777 779 782 784 787 789 791 794 796 797 800 801 803 805 806 808 809 810 812 812 813 814 814 815 816 817 817 817 818 818 818 819 819 819 819 819 819 819 818 817 817 816
788 791 791 790 788 783 784 791 793 791 793 794 795 795 796 797 795 797 795 793 804 809 795 784 788 797 791 771 764 771 771 767 765 765 767 767 768 768 768 769 769 770 772 774 776 778 781 784 786 789 790 792 794 796 798 800 801 803 804 805 807 808 810 811 811 812 813 814 814 815 815 815 816 817 817 818 818 818 818 818 818 817 817 816 816 815
786 792 790 784 782 782 786 793 796 794 793 793 792 792 796 797 797 800 796 801 813 805 788 783 785 795 797 774 761 765 765 762 763 763 765 766 766 766 767 767 767 767 769 771 774 776 779 782 784 787 789 791 793 794 795 797 799 800 802 803 805 807 808 809 810 811 811 812 813 813 814 813 814 816 816 816 816 816 816 816 816 816 815 815 814 814
783 781 779 780 782 782 785 789 794 797 794 793 791 793 800 797 797 804 801 801 804 793 785 786 788 795 792 771 761 764 763 762 762 761 763 764 764 764 765 766 766 766 768 770 772 774 777 780 782 784 786 788 790 791 793 794 796 797 799 801 803 805 806 807 808 809 810 811 812 812 812 812 813 814 814 815 815 815 815 815 814 814 813 813 812 812
782 775 774 782 783 779 781 784 790 793 791 792 788 791 799 795 798 806 801 795 791 787 788 788 792 799 787 766 757 758 759 759 759 760 762 763 764 764 764 765 766 766 768 769 770 772 774 777 779 781 783 785 787 788 789 791 793 795 797 799 801 803 804 805 806 808 809 809 810 810 810 810 811 812 813 813 813 813 813 813 812 812 811 811 810 809
790 785 777 780 779 775 777 776 775 777 782 784 777 779 788 787 791 797 792 785 781 787 797 797 797 796 783 765 753 752 754 755 756 758 760 763 764 764 764 765 766 766 766 767 768 770 772 774 777 779 780 782 784 785 787 789 790 792 794 796 798 800 802 803 804 806 807 807 808 808 808 808 809 811 811 811 811 811 811 811 810 810 809 808 808 807
792 785 772 773 774 773 775 770 765 772 780 778 771 777 782 777 778 785 787 786 786 790 797 800 795 777 764 759 753 753 755 753 756 758 759 762 761 763 765 764 764 764 764 765 767 769 771 772 775 777 778 779 781 783 784 786 788 789 791 793 795 798 799 800 802 803 804 805 806 806 806 807 807 808 809 809 809 809 809 808 808 807 807 806 805 804
790 782 770 774 775 770 771 768 766 774 779 777 779 781 774 766 772 784 792 795 800 799 787 785 788 772 762 760 751 753 757 753 755 757 757 759 758 760 763 761 762 761 761 763 765 766 768 770 772 774 775 777 778 780 782 783 785 787 789 791 793 795 796 798 799 801 802 803 804 804 804 805 805 806 806 807 807 806 806 806 806 805 804 804 803 802
791 785 771 771 774 769 768 771 769 768 771 778 783 776 768 770 775 782 792 795 797 797 779 772 782 778 771 764 748 748 755 753 753 753 754 755 756 758 759 758 758 758 758 761 762 764 765 767 769 771 773 775 776 778 780 781 783 785 787 789 790 792 794 795 797 798 800 800 802 802 802 803 803 804 804 804 804 804 804 804 803 803 802 802 801 800
790 791 776 766 773 772 769 775 776 769 769 775 775 769 772 784 784 782 793 796 793 792 781 772 776 773 765 755 745 747 751 749 748 749 750 752 753 755 755 755 755 755 757 758 759 761 762 764 766 768 771 773 774 776 778 780 781 783 785 786 788 790 791 793 794 796 797 798 799 800 800 801 801 802 802 802 802 802 802 801 801 801 800 800 799 798
788 795 786 771 772 775 772 776 777 774 772 773 774 772 771 779 780 777 780 784 786 787 780 773 772 765 751 741 738 741 742 742 743 745 746 748 749 751 751 752 753 753 755 756 757 758 759 762 764 766 769 771 773 775 777 779 780 781 783 784 786 788 789 791 792 794 795 796 797 798 798 799 799 800 800 799 799 799 799 799 799 798 798 797 797 796
788 794 793 778 771 776 776 772 770 771 772 775 779 778 774 773 774 774 773 771 774 780 778 774 769 754 737 730 732 732 733 735 738 740 743 743 744 746 748 749 750 751 753 754 755 756 757 759 761 765 768 770 772 774 775 777 778 780 781 782 784 786 787 788 790 792 793 794 795 795 796 797 797 797 797 797 797 797 796 796 796 796 795 795 794 793
793 794 795 787 778 777 773 764 761 765 769 773 775 773 772 772 774 781 780 768 763 768 769 770 766 747 728 726 729 727 727 730 732 736 739 739 741 743 744 746 748 749 751 752 753 754 755 757 760 764 766 769 771 772 774 775 776 778 779 780 782 783 785 786 788 789 791 791 792 793 794 794 795 795 795 795 794 794 794 794 793 793 793 792 791 790
799 796 795 790 780 774 768 761 761 764 765 769 771 769 768 769 773 782 784 774 767 766 761 762 763 746 726 724 727 726 725 727 729 733 735 736 738 740 741 743 745 747 748 749 751 752 754 756 760 762 764 767 768 770 772 773 774 776 777 778 779 781 782 784 785 787 788 789 790 791 792 792 792 793 792 792 792 791 791 791 790 790 789 788 787 786
800 797 795 790 777 768 763 760 760 761 765 769 768 765 768 770 772 777 780 779 779 775 768 769 767 748 728 724 727 726 725 726 728 731 732 733 735 738 739 740 742 744 746 747 749 752 754 756 759 760 762 764 766 767 769 771 772 773 774 776 777 778 780 782 783 785 786 787 788 789 789 790 790 790 790 790 789 789 788 787 786 786 786 785 784 783
801 798 797 798 791 781 774 768 762 760 768 774 770 768 771 774 776 778 777 776 779 775 768 770 768 750 732 727 729 727 726 726 727 728 729 731 733 735 736 737 739 742 744 746 749 751 753 755 756 758 759 761 763 765 767 768 770 771 772 774 775 776 778 780 781 783 784 785 786 786 787 788 788 788 787 787 787 786 785 784 783 783 782 781 780 779
803 801 799 802 801 794 786 779 773 772 777 780 778 776 777 778 781 784 783 784 783 775 765 764 762 749 735 732 733 730 728 728 727 726 728 729 730 731 733 735 737 740 743 745 747 750 752 753 754 755 758 760 761 763 765 766 768 769 770 772 773 775 776 778 779 781 782 783 784 784 785 785 785 785 785 785 784 783 782 781 780 779 779 778 776 775
803 801 799 801 799 792 786 779 775 779 784 784 782 781 779 779 780 785 790 790 785 779 772 765 762 757 748 742 739 733 729 729 727 727 728 728 728 729 730 733 735 738 741 743 745 748 749 751 753 754 756 759 760 762 763 764 766 767 769 770 771 773 774 776 778 779 780 781 782 782 783 783 783 783 783 782 781 780 779 778 777 776 775 774 773 771
804 801 798 799 797 790 784 779 776 780 783 784 785 783 780 778 778 783 787 783 779 781 778 767 765 768 762 752 747 739 733 731 728 726 726 726 726 728 728 731 735 737 739 741 743 745 746 749 751 752 755 758 759 760 761 763 764 765 767 768 769 771 772 774 776 777 778 779 779 780 780 780 781 780 780 779 778 778 777 775 774 773 772 771 769 767
805 801 795 795 794 788 783 780 778 779 780 781 782 780 778 777 777 779 779 776 775 778 775 766 766 770 765 755 749 743 738 736 732 727 724 724 724 726 727 730 732 734 736 738 740 742 744 746 748 751 754 756 757 759 760 761 763 764 765 766 767 769 771 772 774 775 776 777 777 778 778 778 778 777 777 776 775 775 774 773 772 770 768 767 765 763
805 799 793 794 794 787 783 780 778 778 779 779 778 776 773 772 772 773 773 770 770 770 768 765 764 765 759 749 743 739 736 735 732 728 726 725 726 726 726 727 729 731 733 735 737 739 742 744 747 749 752 753 755 757 758 759 761 762 763 765 766 768 769 771 772 773 774 775 775 776 776 776 775 775 774 774 773 772 771 770 768 766 764 763 761 759
802 798 793 795 797 790 783 780 778 777 777 777 775 771 769 768 769 769 768 768 768 767 766 766 767 763 751 740 737 736 733 732 729 727 727 728 728 726 724 726 727 728 730 732 735 738 741 743 746 747 749 751 753 755 756 757 759 760 762 763 765 766 768 769 770 771 772 773 773 773 773 773 772 772 771 771 770 770 768 767 765 762 760 759 757 755
800 799 793 794 798 789 778 778 777 775 778 779 775 770 768 769 769 766 764 764 765 767 767 768 767 758 742 733 733 730 728 728 725 724 727 727 723 721 722 724 725 726 728 731 735 738 740 742 744 746 747 749 751 753 754 756 757 759 760 762 763 765 766 767 768 769 770 770 771 771 770 770 770 769 769 768 768 767 765 764 762 760 757 755 754 752
798 798 794 794 796 785 775 775 776 780 787 781 766 761 763 764 764 762 760 759 759 762 764 761 754 743 733 730 729 724 722 722 718 717 721 721 718 719 721 721 723 725 728 731 733 736 738 740 742 744 746 748 749 751 752 754 755 757 758 760 762 763 765 766 766 767 768 768 768 768 768 767 767 766 766 766 765 764 763 761 759 757 755 752 750 748
796 797 794 792 793 786 777 775 781 792 791 769 749 748 753 754 756 757 755 752 750 750 750 746 740 734 730 727 725 722 719 715 711 711 712 712 716 721 719 719 721 724 727 730 732 734 737 739 741 744 745 747 748 750 751 753 754 755 757 759 760 762 763 764 764 765 765 766 766 765 765 765 764 764 764 763 762 761 760 759 757 755 752 750 747 745
794 796 793 789 789 785 776 779 793 794 774 751 743 745 747 747 749 749 748 744 741 739 738 737 734 730 727 724 721 720 718 713 710 711 712 711 714 716 716 717 720 723 726 729 731 733 736 738 740 742 744 746 747 749 750 751 753 754 756 757 759 760 761 762 762 763 763 763 763 763 763 762 762 761 761 761 760 758 757 756 754 752 749 746 744 741
788 791 789 785 785 783 779 782 787 776 753 741 744 744 743 745 747 747 747 740 735 734 732 730 728 723 722 720 716 715 715 714 713 714 714 714 713 714 717 718 719 722 725 728 731 733 735 737 739 741 743 744 746 747 748 750 751 753 755 756 757 758 759 760 760 761 761 761 761 761 760 760 759 759 758 758 757 756 754 753 751 749 746 743 740 737
779 783 783 783 781 780 780 774 766 761 754 747 748 749 749 751 750 753 755 743 731 731 730 728 726 722 719 718 716 714 714 717 719 715 712 714 716 716 717 717 718 722 725 728 731 733 735 737 739 740 742 744 745 745 746 748 750 752 753 755 756 757 758 758 759 759 759 759 759 759 758 758 757 756 755 755 754 753 752 750 748 746 743 740 736 733
771 774 778 783 778 771 774 771 766 769 763 749 748 752 753 753 753 758 761 746 731 733 735 731 731 729 727 727 723 719 719 723 722 714 709 713 716 716 716 718 719 722 725 728 731 732 734 737 738 740 742 742 743 744 745 747 749 751 752 753 754 755 756 756 757 757 757 757 757 757 756 756 755 754 753 752 752 751 749 748 745 743 740 736 732 728
767 769 772 779 776 770 774 774 771 770 758 744 746 750 748 751 753 758 759 743 730 735 737 734 734 733 733 735 728 721 724 727 720 712 710 713 715 716 717 718 720 723 725 727 730 731 734 736 738 740 741 741 742 743 744 746 748 750 751 752 753 754 754 755 755 756 756 756 755 755 754 754 753 752 750 750 749 748 746 744 742 739 736 732 728 723
768 770 771 775 773 769 772 771 767 760 749 742 746 748 745 747 753 761 759 739 730 735 735 735 739 736 733 734 728 722 721 720 713 709 712 715 715 715 716 718 720 722 724 726 729 731 733 736 737 738 739 739 740 742 743 746 747 748 749 750 752 753 753 754 754 754 755 754 754 753 752 751 751 749 748 747 746 745 743 741 738 735 731 728 724 720
769 770 770 770 767 763 765 766 760 750 743 743 747 747 746 747 752 759 752 736 732 735 732 734 742 740 735 733 728 723 719 713 709 709 713 716 715 714 716 718 719 722 723 725 729 731 733 734 735 736 737 738 739 740 743 745 746 747 748 749 751 752 752 753 754 754 753 753 752 752 750 749 749 747 746 746 744 742 741 739 736 732 728 724 721 717
773 772 769 767 766 762 759 758 753 746 745 749 748 745 748 753 752 747 739 734 736 737 733 735 738 739 739 735 730 727 723 715 710 710 712 714 713 713 716 718 720 723 724 726 729 731 732 733 734 735 736 737 738 739 742 744 745 746 747 749 750 751 752 753 753 752 752 752 751 750 749 748 747 746 745 744 742 740 738 736 733 730 726 722 718 714
772 775 771 763 761 760 758 758 758 754 752 753 750 748 750 752 747 740 737 737 738 737 738 738 736 737 741 739 734 731 727 719 713 709 708 710 711 714 717 719 721 723 724 726 728 730 731 732 733 734 735 736 737 738 741 743 744 744 746 748 749 751 752 752 752 751 751 750 749 749 748 747 746 744 743 741 739 738 736 734 731 728 724 720 715 710
770 774 771 762 762 767 767 761 754 749 747 749 750 750 749 746 742 741 741 739 738 740 741 739 736 737 740 740 737 734 729 722 715 711 710 711 713 715 718 720 722 724 725 726 728 728 731 732 731 733 734 735 736 738 740 742 742 744 746 747 749 750 751 751 751 751 750 749 748 747 746 745 744 743 741 739 738 736 734 732 729 726 722 718 713 708
768 767 767 764 763 766 764 756 747 743 744 745 745 745 744 743 742 742 742 740 740 741 740 738 735 735 736 737 737 735 731 723 715 712 713 713 715 717 719 720 723 724 725 726 727 728 730 730 730 732 733 734 736 737 739 741 742 743 745 747 749 750 750 750 750 750 749 748 746 745 745 743 742 741 739 738 736 734 733 730 727 724 721 717 712 707
762 763 766 767 764 760 756 751 748 746 745 742 742 741 740 740 741 741 741 740 739 740 739 737 735 733 734 735 735 734 730 722 717 716 716 716 717 719 720 721 723 725 725 726 726 728 728 728 730 731 731 733 735 737 738 741 742 743 745 747 748 749 749 749 749 748 748 746 745 744 743 742 741 739 737 736 735 733 731 729 726 723 720 716 711 706
757 760 763 765 766 764 757 748 744 744 742 740 739 738 737 739 741 742 741 739 738 738 738 737 735 733 733 734 734 733 729 723 719 719 718 718 719 720 721 723 724 725 725 725 726 727 727 727 728 729 730 732 734 735 738 740 741 743 745 746 747 748 748 748 748 747 746 745 744 743 742 741 740 738 736 734 734 733 730 728 725 723 719 715 710 705
763 767 766 762 761 760 753 744 740 741 739 737 736 736 736 739 741 741 740 739 739 738 737 736 735 733 733 732 731 731 730 726 721 719 719 719 720 720 721 723 723 724 725 725 726 726 725 725 726 727 728 730 732 734 737 739 741 743 744 745 747 747 747 748 747 746 745 745 744 742 741 740 739 737 735 734 733 731 729 726 724 722 719 715 711 706
767 770 766 759 755 751 746 741 739 738 736 734 734 734 736 739 739 739 740 739 738 738 738 737 735 733 733 732 729 730 732 729 724 721 721 720 720 721 722 723 723 724 724 725 726 726 724 724 725 725 727 729 731 734 736 738 740 742 743 745 746 746 747 747 746 745 745 744 743 742 741 739 738 736 734 733 732 730 728 726 723 720 718 715 711 707
761 759 755 754 753 748 742 738 738 739 738 736 734 734 736 738 739 739 739 738 738 740 740 738 736 734 734 733 732 732 733 730 727 726 724 722 722 723 723 723 723 723 724 725 726 725 724 724 724 724 726 728 730 733 735 737 740 741 742 744 745 745 746 745 744 744 744 743 742 742 740 739 737 735 734 732 731 729 727 725 723 720 717 714 710 707
757 753 751 752 749 743 739 737 738 740 739 735 735 737 736 736 738 739 738 738 739 741 742 740 738 737 737 736 735 733 731 729 728 727 725 724 724 724 724 724 723 723 724 725 725 724 723 723 723 724 726 728 730 733 735 737 739 740 741 743 744 744 745 744 743 743 742 742 742 742 740 738 736 735 733 731 730 729 727 724 721 719 716 713 710 706